Weather History for Santa Rosa, CA

Change the Weather History Date:

Monday, November 4, 2013

  Actual Average Record
Temperature  
Mean Temperature 52 °F 56 °F  
Max Temperature 73 °F 69 °F 81 °F (2012)
Min Temperature 30 °F 42 °F 30 °F (2011)
Degree Days  
Heating Degree Days 13    
Month to date heating degree days 41  
Since 1 July heating degree days 284  
Cooling Degree Days 0    
Month to date cooling degree days 0  
Year to date cooling degree days 415  
Growing Degree Days 2 (Base 50)    
Moisture  
Dew Point 30 °F    
Average Humidity 52    
Maximum Humidity 89    
Minimum Humidity 15    
Precipitation  
Precipitation 0.00 in 0.15 in 0.02 in (2004)
Month to date precipitation 0.00 0.61  
Year to date precipitation 7.05 25.17  
Since 1 July precipitation 0.53 3.08  
Sea Level Pressure  
Sea Level Pressure 29.98 in    
Wind  
Wind Speed 7 mph (North)    
Max Wind Speed 17 mph    
Max Gust Speed 21 mph    
Visibility 10 miles    
Events      
T = Trace of Precipitation, MM = Missing Value Source: NWS Daily Summary

Daily Weather History Graph

Daily Weather History Graph

Search for Another Location

Airport:

Trip Planner

Search our weather history database for the weather conditions in past years. The results will help you decide how hot, cold, wet, or windy it might be!

Date:

Astronomy

Nov. 04, 2013 Rise Set
Actual Time 6:41 AM PST 5:07 PM PST
Civil Twilight 6:13 AM PST 5:35 PM PST
Nautical Twilight 5:42 AM PST 6:06 PM PST
Astronomical Twilight 5:11 AM PST 6:37 PM PST
Moon 7:57 AM PST (11/4) 6:18 PM PST (11/4)
Length of Visible Light 11h 21m
Length of Day
10h 26m
New Moon, 2% of the Moon is Illuminated
Nov 4
New Moon
Nov 9
First Quarter
Nov 17
Full
Nov 25
Last Quarter
Dec 2
New

Hourly Weather History & Observations

Time (PST) Temp. Windchill Dew Point Humidity Pressure Visibility Wind Dir Wind Speed Gust Speed Precip Events Conditions
12:53 AM 37.0 °F - 32.0 °F 82% 29.92 in 10.0 mi Calm Calm - N/A   Clear
1:53 AM 37.9 °F 35.5 °F 32.0 °F 79% 29.91 in 10.0 mi NW 3.5 mph - N/A   Clear
2:53 AM 36.0 °F - 32.0 °F 86% 29.92 in 10.0 mi Calm Calm - N/A   Clear
3:53 AM 36.0 °F - 30.9 °F 82% 29.91 in 10.0 mi Calm Calm - N/A   Clear
4:53 AM 33.1 °F - 30.0 °F 89% 29.94 in 10.0 mi Calm Calm - N/A   Clear
5:53 AM 34.0 °F - 30.9 °F 89% 29.95 in 10.0 mi Calm Calm - N/A   Clear
6:53 AM 34.0 °F - 30.9 °F 89% 29.97 in 10.0 mi Calm Calm - N/A   Clear
7:53 AM 41.0 °F 39.0 °F 35.1 °F 79% 29.99 in 10.0 mi North 3.5 mph - N/A   Clear
8:53 AM 55.9 °F - 30.9 °F 39% 30.01 in 10.0 mi North 9.2 mph - N/A   Clear
9:53 AM 60.1 °F - 28.9 °F 31% 30.01 in 10.0 mi North 16.1 mph - N/A   Clear
10:53 AM 64.0 °F - 26.1 °F 24% 29.99 in 10.0 mi NNW 12.7 mph - N/A   Clear
11:53 AM 68.0 °F - 24.1 °F 19% 29.98 in 10.0 mi NNW 10.4 mph - N/A   Clear
12:53 PM 70.0 °F - 23.0 °F 17% 29.96 in 10.0 mi NNW 8.1 mph - N/A   Clear
1:53 PM 72.0 °F - 21.9 °F 15% 29.95 in 10.0 mi North 5.8 mph 16.1 mph N/A   Clear
2:53 PM 72.0 °F - 23.0 °F 16% 29.95 in 10.0 mi North 9.2 mph - N/A   Clear
3:53 PM 71.1 °F - 25.0 °F 18% 29.96 in 10.0 mi North 11.5 mph - N/A   Clear
4:53 PM 66.9 °F - 26.1 °F 21% 29.98 in 10.0 mi NNW 9.2 mph - N/A   Clear
5:53 PM 61.0 °F - 30.9 °F 32% 30.00 in 10.0 mi North 10.4 mph - N/A   Clear
6:53 PM 57.9 °F - 33.1 °F 39% 30.01 in 10.0 mi NNW 10.4 mph - N/A   Clear
7:53 PM 55.9 °F - 33.1 °F 42% 30.03 in 10.0 mi NNW 8.1 mph - N/A   Clear
8:53 PM 54.0 °F - 35.1 °F 49% 30.05 in 10.0 mi NNE 6.9 mph - N/A   Clear
9:53 PM 53.1 °F - 36.0 °F 52% 30.05 in 10.0 mi NNE 6.9 mph - N/A   Clear
10:53 PM 52.0 °F - 36.0 °F 54% 30.07 in 10.0 mi NE 9.2 mph - N/A   Clear
11:53 PM 50.0 °F - 36.0 °F 59% 30.08 in 10.0 mi NNE 6.9 mph - N/A   Clear